Location: Sungai Liu
(2.3667°N, 113.8667°E)
Time: 13:23:18
(UTC+00:00)

USA 215 - Pass Details

Date: 20 May 2022
Orbit: 1099 x 1108 km, 123.0° (Epoch: 10 June)

Event Time Altitude Azimuth Distance (km) Brightness Sun altitude
Rises 12:16:36 0° 35° (NE) 3,914 6.0 -26.0°
Reaches altitude 10° 12:19:04 10° 35° (NE) 2,959 5.4 -26.6°
Maximum altitude 12:25:38 86° 307° (NW) 1,111 3.2 -28.1°
Drops below altitude 10° 12:32:12 10° 218° (SW) 2,967 5.6 -29.6°
Sets 12:34:41 0° 217° (SW) 3,926 6.3 -30.2°
